FW9225 Weather Reports


Display with metric or nautical units.
time (UTC)temp
F
wind
direction
speed
MPH
gust
MPH
rain 1hr
in
rain 24hr
in
rain mn
in
humidity
%
barometer
mb
20260504081541 42 0 0.0 0.0 0.00 0.00 0.00 73 1014.5
20260504044546 46 0 0.0 1.0 0.00 0.00 0.00 59 1014.3
20260504043043 46 0 0.0 2.0 0.00 0.00 0.00 60 1014.2
20260504041541 45 0 0.0 1.0 0.00 0.00 0.00 62 1014.0
20260504040045 44 0 0.0 0.0 0.00 0.00 0.00 62 1014.0
20260504034535 45 0 0.0 0.0 0.00 0.00 0.00 60 1014.0
20260504033051 46 0 0.0 2.0 0.00 0.00 0.00 60 1013.9
20260504031543 45 0 0.0 1.0 0.00 0.00 0.00 60 1013.8
20260504030046 46 0 0.0 0.0 0.00 0.00 0.00 59 1013.7
20260504024549 47 0 0.0 0.0 0.00 0.00 0.00 58 1013.7
20260504023037 48 0 0.0 1.0 0.00 0.00 0.00 55 1013.8
20260504021550 47 0 0.0 1.0 0.00 0.00 0.00 56 1013.8
20260504020048 48 0 0.0 1.0 0.00 0.00 0.00 55 1013.7
20260504014541 47 0 0.0 0.0 0.00 0.00 0.00 56 1013.7
20260504013046 49 0 0.0 0.0 0.00 0.00 0.00 52 1013.5
20260504011534 50 0 0.0 0.0 0.00 0.00 0.00 50 1013.3
20260504010043 51 0 0.0 1.0 0.00 0.00 0.00 48 1013.2
20260504004543 52 0 0.0 2.0 0.00 0.00 0.00 46 1013.1
20260504003042 53 0 0.0 1.0 0.00 0.00 0.00 45 1012.8
20260504001540 54 0 0.0 3.0 0.00 0.00 0.00 43 1012.5
20260504000040 56 105 1.0 5.0 0.00 0.00 0.00 41 1012.5
20260503234538 57 0 2.0 7.0 0.00 0.00 0.00 39 1012.4
20260503233042 58 126 2.0 9.0 0.00 0.00 0.00 38 1012.2
20260503231551 58 139 5.0 9.0 0.00 0.00 0.00 37 1012.2
20260503230041 59 93 5.0 10.0 0.00 0.00 0.00 36 1012.2
20260503224538 59 139 4.0 15.0 0.00 0.00 0.00 36 1012.1
20260503223037 60 157 4.0 10.0 0.00 0.00 0.00 35 1012.0
20260503221550 60 136 5.0 14.0 0.00 0.00 0.00 34 1012.1
20260503220043 59 93 5.0 11.0 0.00 0.00 0.00 36 1012.2
20260503214537 59 140 5.0 12.0 0.00 0.00 0.00 36 1012.1
20260503213043 59 140 9.0 14.0 0.00 0.00 0.00 34 1012.0
20260503211553 59 153 2.0 13.0 0.00 0.00 0.00 35 1012.0
20260503210043 59 122 9.0 20.0 0.00 0.00 0.00 34 1012.1
20260503204539 58 118 6.0 14.0 0.00 0.00 0.00 35 1012.0
20260503203040 59 137 4.0 13.0 0.00 0.00 0.00 37 1012.1
20260503201538 58 126 4.0 17.0 0.00 0.00 0.00 37 1012.4
20260503200035 57 125 7.0 13.0 0.00 0.00 0.00 38 1012.5
20260503194548 57 124 4.0 14.0 0.00 0.00 0.00 37 1012.5
20260503193043 56 132 7.0 20.0 0.00 0.00 0.00 39 1012.7
20260503191550 56 175 11.0 24.0 0.00 0.00 0.00 38 1012.9
20260503190044 56 165 8.0 14.0 0.00 0.00 0.00 36 1012.8
20260503184549 56 110 8.0 15.0 0.00 0.00 0.00 37 1013.1
20260503183044 55 146 9.0 19.0 0.00 0.00 0.00 39 1013.3
20260503181540 56 160 8.0 17.0 0.00 0.00 0.00 40 1013.3
20260503180041 54 147 8.0 22.0 0.00 0.00 0.00 38 1013.3
20260503174559 54 117 9.0 19.0 0.00 0.00 0.00 38 1013.3
20260503173040 54 98 5.0 19.0 0.00 0.00 0.00 39 1013.5
20260503171540 54 122 8.0 17.0 0.00 0.00 0.00 40 1013.6